Location: Fort Worth, Tx
(32.7431°N, 97.3695°W)
Time: 05:44:59
(UTC-05:00)

Courier 1B - Visible Passes

Search period start: 23 February 2024 00:00
Search period end: 04 March 2024 00:00
Orbit: 962 x 1209 km, 28.3° (Epoch: 22 February)

Date Brightness Start Highest point End Pass type
(mag) Time Alt. Az. Time Alt. Az. Time Alt. Az.
23 Feb 9.7 04:33:04 18° ESE 04:33:04 18° ESE 04:34:38 10° ESE visible
23 Feb 8.1 06:19:57 37° SW 06:21:45 45° SSW 06:28:24 10° SE visible
24 Feb 8.3 05:29:34 43° SSE 05:29:34 43° SSE 05:34:38 10° ESE visible
24 Feb 8.8 07:16:28 11° WSW 07:21:38 27° SSW 07:27:25 10° SSE visible
25 Feb 9.7 04:39:14 18° ESE 04:39:14 18° ESE 04:40:49 10° ESE visible
25 Feb 8.4 06:26:08 28° SW 06:27:56 33° SSW 06:33:59 10° SE visible
26 Feb 8.5 05:35:50 34° SSE 05:35:50 34° SSE 05:40:27 10° SE visible
26 Feb 9.3 07:23:40 10° WSW 07:27:41 17° SSW 07:31:50 10° S visible
27 Feb 9.7 04:45:34 16° SE 04:45:34 16° SE 04:46:50 10° ESE visible
27 Feb 8.9 06:32:28 20° SW 06:34:01 21° SSW 06:39:00 10° SSE visible
28 Feb 9.0 05:42:14 23° S 05:42:14 23° S 05:45:51 10° SSE visible
28 Feb 9.6 21:10:06 10° S 21:11:18 11° SSE 21:11:18 11° SSE visible
29 Feb 9.9 04:52:04 12° SE 04:52:04 12° SE 04:52:31 10° SE visible
29 Feb 9.4 06:38:58 12° SW 06:40:04 12° SSW 06:42:27 10° S visible
29 Feb 9.6 22:06:26 10° SSW 22:08:07 16° SSW 22:08:07 16° SSW visible
01 Mar 9.5 05:48:49 14° S 05:48:49 14° S 05:50:23 10° S visible
01 Mar 9.0 21:13:16 10° SSW 21:18:01 21° SSE 21:18:01 21° SSE visible
02 Mar 9.3 20:20:26 10° S 20:24:38 16° SSE 20:27:54 12° ESE visible
02 Mar 9.2 22:11:43 10° SW 22:14:49 24° SSW 22:14:49 24° SSW visible
03 Mar 8.5 21:18:08 10° SW 21:24:25 32° SSE 21:24:39 32° SSE visible
03 Mar 10.2 23:11:20 10° WSW 23:11:34 11° WSW 23:11:34 11° WSW visible
